| time (UTC) | temp F | wind direction | speed MPH | gust MPH | rain 1hr in | rain 24hr in | rain mn in | humidity % | barometer mb |
| 20260831103135 | 63 | 258 | 4.0 | 13.0 | 0.00 | 0.30 | 0.00 | 81 | 1006.8 |
| 20260831101558 | 62 | 297 | 6.0 | 14.0 | 0.00 | 0.30 | 0.00 | 85 | 1006.7 |
| 20260831100056 | 61 | 258 | 3.0 | 10.0 | 0.00 | 0.30 | 0.00 | 88 | 1006.6 |
| 20260831094549 | 59 | 240 | 4.0 | 10.0 | 0.00 | 0.33 | 0.00 | 91 | 1006.5 |
| 20260831093046 | 59 | 285 | 3.0 | 10.0 | 0.00 | 0.33 | 0.00 | 91 | 1006.3 |
| 20260831091533 | 58 | 248 | 3.0 | 9.0 | 0.00 | 0.33 | 0.00 | 92 | 1006.1 |
| 20260831090012 | 58 | 238 | 3.0 | 8.0 | 0.00 | 0.33 | 0.00 | 92 | 1005.9 |
| 20260831084512 | 58 | 242 | 3.0 | 10.0 | 0.00 | 0.35 | 0.00 | 93 | 1005.7 |
| 20260831083002 | 58 | 311 | 4.0 | 9.0 | 0.00 | 0.35 | 0.00 | 93 | 1005.6 |
| 20260831081510 | 57 | 275 | 3.0 | 10.0 | 0.00 | 0.35 | 0.00 | 94 | 1005.5 |
| 20260831080012 | 57 | 248 | 4.0 | 10.0 | 0.00 | 0.35 | 0.00 | 95 | 1005.2 |
| 20260831074505 | 56 | 266 | 4.0 | 9.0 | 0.00 | 0.35 | 0.00 | 95 | 1005.1 |
| 20260831073116 | 56 | 224 | 3.0 | 11.0 | 0.00 | 0.35 | 0.00 | 96 | 1004.9 |
| 20260831071510 | 56 | 284 | 3.0 | 11.0 | 0.00 | 0.35 | 0.00 | 96 | 1004.7 |
| 20260831070123 | 56 | 267 | 4.0 | 11.0 | 0.00 | 0.35 | 0.00 | 96 | 1004.6 |
| 20260831064502 | 55 | 302 | 3.0 | 8.0 | 0.00 | 0.35 | 0.00 | 96 | 1004.4 |
| 20260831063127 | 55 | 306 | 2.0 | 7.0 | 0.00 | 0.35 | 0.00 | 96 | 1004.3 |
| 20260831061544 | 55 | 242 | 4.0 | 10.0 | 0.00 | 0.35 | 0.00 | 96 | 1004.1 |
| 20260831060017 | 55 | 274 | 2.0 | 5.0 | 0.00 | 0.35 | 0.00 | 96 | 1004.0 |
| 20260831054531 | 55 | 260 | 2.0 | 6.0 | 0.00 | 0.53 | 0.00 | 96 | 1003.9 |
| 20260831053043 | 55 | 248 | 1.0 | 6.0 | 0.00 | 0.53 | 0.00 | 96 | 1003.7 |
| 20260831051537 | 55 | 259 | 1.0 | 6.0 | 0.00 | 0.53 | 0.00 | 96 | 1003.7 |
| 20260831050104 | 55 | 277 | 1.0 | 5.0 | 0.00 | 0.53 | 0.00 | 96 | 1003.4 |
| 20260831044559 | 55 | 236 | 2.0 | 4.0 | 0.00 | 0.54 | 0.00 | 96 | 1003.2 |
| 20260831043111 | 55 | 320 | 2.0 | 4.0 | 0.00 | 0.54 | 0.00 | 96 | 1003.2 |
| 20260831041603 | 55 | 292 | 1.0 | 4.0 | 0.00 | 0.54 | 0.00 | 96 | 1003.1 |
| 20260831040055 | 55 | 270 | 1.0 | 4.0 | 0.00 | 0.54 | 0.00 | 96 | 1003.0 |
| 20260831034553 | 55 | 262 | 1.0 | 4.0 | 0.00 | 0.59 | 0.00 | 96 | 1002.9 |
| 20260831033108 | 55 | 267 | 0.0 | 3.0 | 0.00 | 0.59 | 0.00 | 96 | 1002.8 |
| 20260831031559 | 55 | 259 | 1.0 | 3.0 | 0.00 | 0.59 | 0.00 | 96 | 1002.8 |
| 20260831030024 | 55 | 259 | 0.0 | 3.0 | 0.00 | 0.59 | 0.00 | 96 | 1002.7 |
| 20260831024548 | 55 | 244 | 0.0 | 3.0 | 0.00 | 0.61 | 0.00 | 96 | 1002.8 |
| 20260831023014 | 55 | 228 | 1.0 | 6.0 | 0.00 | 0.61 | 0.00 | 96 | 1002.7 |
| 20260831021532 | 55 | 250 | 0.0 | 3.0 | 0.00 | 0.61 | 0.00 | 96 | 1002.6 |
| 20260831020013 | 55 | 267 | 0.0 | 2.0 | 0.00 | 0.61 | 0.00 | 96 | 1002.6 |
| 20260831014529 | 55 | 246 | 1.0 | 3.0 | 0.00 | 0.62 | 0.00 | 96 | 1002.5 |
| 20260831013010 | 55 | 296 | 0.0 | 4.0 | 0.00 | 0.62 | 0.00 | 96 | 1002.6 |
| 20260831011518 | 55 | 288 | 1.0 | 4.0 | 0.00 | 0.62 | 0.00 | 96 | 1002.6 |
| 20260831010150 | 55 | 292 | 2.0 | 3.0 | 0.00 | 0.62 | 0.00 | 96 | 1002.6 |
| 20260831004502 | 55 | 302 | 0.0 | 2.0 | 0.00 | 0.62 | 0.00 | 96 | 1002.4 |
| 20260831003106 | 55 | 302 | 1.0 | 3.0 | 0.00 | 0.62 | 0.00 | 96 | 1002.4 |
| 20260831001601 | 55 | 298 | 0.0 | 0.0 | 0.00 | 0.62 | 0.00 | 96 | 1002.4 |
| 20260831000109 | 55 | 298 | 0.0 | 0.0 | 0.00 | 0.62 | 0.00 | 96 | 1002.3 |
| 20260830234613 | 56 | 298 | 0.0 | 0.0 | 0.00 | 0.62 | 0.00 | 96 | 1002.3 |
| 20260830233109 | 56 | 298 | 0.0 | 3.0 | 0.00 | 0.62 | 0.00 | 96 | 1002.4 |
| 20260830231606 | 56 | 288 | 1.0 | 4.0 | 0.00 | 0.62 | 0.00 | 96 | 1002.4 |
| 20260830230114 | 56 | 91 | 0.0 | 0.0 | 0.00 | 0.62 | 0.00 | 96 | 1002.4 |
| 20260830224551 | 56 | 91 | 0.0 | 0.0 | 0.00 | 0.62 | 0.62 | 96 | 1002.5 |
| 20260830223112 | 56 | 91 | 0.0 | 0.0 | 0.00 | 0.62 | 0.62 | 96 | 1002.5 |
| 20260830221551 | 56 | 91 | 0.0 | 0.0 | 0.00 | 0.62 | 0.62 | 96 | 1002.7 |
| 20260830220057 | 56 | 91 | 0.0 | 0.0 | 0.00 | 0.62 | 0.62 | 96 | 1002.7 |
| 20260830214558 | 55 | 91 | 0.0 | 0.0 | 0.00 | 0.62 | 0.62 | 96 | 1002.7 |
| 20260830213114 | 55 | 91 | 0.0 | 0.0 | 0.00 | 0.62 | 0.62 | 96 | 1002.7 |
| 20260830211605 | 55 | 91 | 0.0 | 0.0 | 0.00 | 0.62 | 0.62 | 95 | 1002.6 |
| 20260830210114 | 55 | 91 | 0.0 | 0.0 | 0.00 | 0.62 | 0.62 | 95 | 1002.5 |
| 20260830204604 | 56 | 91 | 0.0 | 1.0 | 0.00 | 0.62 | 0.62 | 95 | 1002.5 |
| 20260830203053 | 56 | 91 | 0.0 | 0.0 | 0.00 | 0.62 | 0.62 | 95 | 1002.6 |
| 20260830201602 | 57 | 91 | 0.0 | 0.0 | 0.00 | 0.62 | 0.62 | 95 | 1002.7 |
| 20260830200043 | 57 | 91 | 0.0 | 2.0 | 0.00 | 0.62 | 0.62 | 95 | 1002.7 |
| 20260830194535 | 58 | 91 | 0.0 | 2.0 | 0.00 | 0.62 | 0.62 | 95 | 1002.6 |
| 20260830193043 | 58 | 107 | 0.0 | 0.0 | 0.00 | 0.62 | 0.62 | 95 | 1002.5 |
| 20260830191535 | 58 | 125 | 0.0 | 3.0 | 0.00 | 0.62 | 0.62 | 95 | 1002.6 |
| 20260830190138 | 58 | 123 | 0.0 | 2.0 | 0.00 | 0.62 | 0.62 | 95 | 1002.7 |
| 20260830184557 | 58 | 111 | 0.0 | 1.0 | 0.00 | 0.62 | 0.62 | 95 | 1002.8 |
| 20260830183113 | 58 | 111 | 0.0 | 1.0 | 0.00 | 0.62 | 0.62 | 95 | 1002.8 |
| 20260830181608 | 58 | 75 | 0.0 | 2.0 | 0.00 | 0.62 | 0.62 | 94 | 1002.8 |
| 20260830180139 | 58 | 98 | 0.0 | 2.0 | 0.00 | 0.62 | 0.62 | 94 | 1002.8 |
| 20260830174529 | 58 | 111 | 0.0 | 2.0 | 0.00 | 0.62 | 0.62 | 94 | 1002.9 |
| 20260830173059 | 59 | 74 | 0.0 | 4.0 | 0.01 | 0.62 | 0.62 | 94 | 1003.1 |
| 20260830171602 | 59 | 61 | 0.0 | 0.0 | 0.02 | 0.62 | 0.62 | 93 | 1003.2 |
| 20260830170104 | 59 | 19 | 1.0 | 3.0 | 0.02 | 0.62 | 0.62 | 93 | 1003.0 |
| 20260830164537 | 58 | 355 | 1.0 | 4.0 | 0.12 | 0.62 | 0.62 | 93 | 1003.1 |
| 20260830163009 | 59 | 204 | 2.0 | 4.0 | 0.22 | 0.61 | 0.61 | 92 | 1003.3 |
| 20260830161505 | 59 | 132 | 0.0 | 0.0 | 0.21 | 0.61 | 0.61 | 92 | 1003.3 |
| 20260830160109 | 60 | 132 | 0.0 | 6.0 | 0.21 | 0.61 | 0.61 | 90 | 1003.3 |
| 20260830154601 | 61 | 186 | 3.0 | 6.0 | 0.10 | 0.50 | 0.50 | 90 | 1003.4 |
| 20260830153106 | 62 | 71 | 4.0 | 9.0 | 0.00 | 0.39 | 0.39 | 87 | 1003.0 |
| 20260830151616 | 63 | 59 | 0.0 | 6.0 | 0.00 | 0.39 | 0.39 | 85 | 1003.0 |
| 20260830150114 | 64 | 101 | 0.0 | 7.0 | 0.00 | 0.39 | 0.39 | 85 | 1003.1 |
| 20260830144523 | 63 | 24 | 3.0 | 7.0 | 0.00 | 0.39 | 0.39 | 88 | 1003.2 |
| 20260830143142 | 63 | 156 | 0.0 | 5.0 | 0.00 | 0.39 | 0.39 | 83 | 1003.5 |
| 20260830141503 | 64 | 219 | 0.0 | 4.0 | 0.00 | 0.39 | 0.39 | 84 | 1003.5 |
| 20260830140125 | 63 | 217 | 0.0 | 3.0 | 0.00 | 0.39 | 0.39 | 84 | 1003.6 |
| 20260830134510 | 63 | 293 | 1.0 | 4.0 | 0.00 | 0.39 | 0.39 | 86 | 1003.6 |
| 20260830133131 | 64 | 238 | 1.0 | 4.0 | 0.00 | 0.39 | 0.39 | 89 | 1003.7 |
| 20260830131507 | 63 | 279 | 1.0 | 4.0 | 0.00 | 0.39 | 0.39 | 88 | 1003.7 |
| 20260830130148 | 62 | 252 | 2.0 | 5.0 | 0.00 | 0.39 | 0.39 | 91 | 1003.9 |
| 20260830124558 | 62 | 222 | 2.0 | 7.0 | 0.00 | 0.39 | 0.39 | 93 | 1003.9 |
| 20260830123021 | 61 | 355 | 0.0 | 3.0 | 0.01 | 0.39 | 0.39 | 94 | 1003.9 |
| 20260830121515 | 61 | 335 | 1.0 | 4.0 | 0.02 | 0.39 | 0.39 | 95 | 1003.9 |
| 20260830120131 | 61 | 322 | 0.0 | 3.0 | 0.07 | 0.39 | 0.39 | 96 | 1003.9 |
| 20260830114510 | 61 | 74 | 0.0 | 3.0 | 0.07 | 0.39 | 0.39 | 96 | 1003.8 |
| 20260830113150 | 59 | 73 | 0.0 | 3.0 | 0.06 | 0.39 | 0.39 | 97 | 1003.9 |
| 20260830111511 | 58 | 340 | 0.0 | 3.0 | 0.05 | 0.37 | 0.37 | 96 | 1004.1 |
| 20260830110147 | 58 | 119 | 1.0 | 4.0 | 0.00 | 0.32 | 0.32 | 96 | 1004.1 |
| 20260830104505 | 58 | 103 | 1.0 | 4.0 | 0.00 | 0.32 | 0.32 | 96 | 1004.2 |